Weather in Zardab

Azerbaijan     40˚13′23″N   47˚42′24″E
temp.,
°C
wind,
m/s
gust,
m/s
humid.,
%
clouds,
%
prec.,
mm/h
press.,
hPa
HPBL,
m
30 november, mon
mon3001:00+7˚wnw1188100 0.8 102790
04:00+7˚nw1189100 0.9 1026118
07:00+6˚ssw0091100 0.0 102642
10:00+8˚sse2284100 0.0 1026222
13:00+10˚ese236987 0.0 1025639
16:00+11˚se336786 0.0 1024784
19:00+10˚se457099 0.0 1025475
22:00+9˚ese4770100 0.0 1025359
1 december, tue
tue101:00+9˚ese367687 0.0 1024371
04:00+8˚e117994 0.0 102326
07:00+7˚w1182100 0.0 102325
10:00+9˚nw227299 0.0 1023229
13:00+12˚wnw225943 0.0 1022798
16:00+13˚wnw225524 0.0 1021931
19:00+9˚w12700 0.0 102323
22:00+8˚w11780 0.0 102422
2 december, wed
wed201:00+6˚w11860 0.0 102422
04:00+6˚nw12850 0.0 102422
07:00+5˚nw12880 0.0 102522
10:00+9˚nnw01690 0.0 1025126
13:00+12˚ne11560 0.0 1024557
16:00+13˚ese125114 0.0 1024784
19:00+10˚ese226475 0.0 102522
22:00+9˚se237487 0.0 102646
3 december, thu
thu301:00+8˚s1185100 0.0 102722
04:00+9˚sse0181100 0.0 102722
07:00+9˚w1186100 0.2 102822
10:00+10˚wsw1275100 0.2 1029150
13:00+10˚nw0172100 0.0 1028425
16:00+11˚ese216988 0.0 1028565
19:00+10˚se247787 0.0 1029274
22:00+10˚se377794 0.1 1030488
4 december, fri
fri401:00+9˚se257598 0.0 1030332
04:00+8˚ese238090 0.0 1029167
07:00+8˚ese238391 0.0 1029205
10:00+9˚se357692 0.0 1030364
13:00+10˚se447183 0.0 1028500
16:00+9˚se347492 0.0 1028327
19:00+8˚se3483100 0.1 1028223
22:00+8˚ese2388100 0.6 1029275